Powrót do katalogu

THOR ABLESTAR DEB

AktywnyLEO
NORAD 138·DEBRIS·🇺🇸 United States

Wystrzelony Jun 29, 1961 z Cape Canaveral Space Force Station

Loading…

Następne Przeloty (najbliższe 24 godziny)

TLE

ŚwieżeSource: Space-Track

Epoka: Sep 14, 2026, 09:57 UTC

1 00138U 61015Y   26257.41492198  .00000394  00000-0  29224-3 0  9993
2 00138  67.1527 242.0632 0024945  43.1311 317.1726 14.04823978315369

Śledź THOR ABLESTAR DEB w czasie rzeczywistym z AllMySat

Download on the App Store